Regional Weather Roundup
Issued by NWS Mobile, AL

Home | Current Version | Previous Version | Text Only | Print | Product List | Glossary On
Versions: 1 2 3 4 5 6 7 8 9 10 11 12 13 14 15 16 17 18 19 20 21 22 23 24 25 26 27 28 29 30 31 32 33 34 35 36 37 38 39 40 41 42 43 44 45 46 47 48 49 50
000
ASUS44 KMOB 191410
RWRMOB
REGIONAL WEATHER ROUNDUP
NATIONAL WEATHER SERVICE MOBILE AL
800 AM CST FRI DEC 19 2014

NOTE: "FAIR" INDICATES FEW OR NO CLOUDS BELOW 12,000 FEET WITH NO
      SIGNIFICANT WEATHER AND/OR OBSTRUCTIONS TO VISIBILITY.

  * THESE STATIONS ARE PART OF THE UNIVERSITY OF SOUTH ALABAMA
    MESONET AND ARE NOT UNDER NWS OR FAA QUALITY CONTROL.

ALZ061>064-191500-
COASTAL ALABAMA

CITY           SKY/WX    TMP DP  RH WIND       PRES   REMARKS
MOBILE REG APT RAIN      47  45  93 N5        30.18R FOG
BROOKLEY FIELD LGT RAIN  51  45  79 N7        30.17R
USA CAMPUS*      N/A     48  45  87 NW5       30.17S
DOG RIVER*     NOT AVBL


CITY           SKY/WX    TMP DP  RH WIND       PRES   REMARKS
MOUNT VERNON*    N/A     50  39  66 N3        30.18R
SARALAND*      NOT AVBL
BAY MINETTE*   NOT AVBL
LOXLEY*          N/A     48  43  81 NE6       30.13F
ROBERTSDALE*     N/A     48  43  81 CALM      30.12F
FAIRHOPE*        N/A     48  45  87 E9        30.11F
ELBERTA*         N/A     50  43  76 NE3       30.15R
FOLEY*           N/A     50  37  62 CALM      30.16R
GRAND BAY*       N/A     48  45  87 N7        30.15R
DAUPHIN ISLND* NOT AVBL
BON SCOUR NWR* NOT AVBL
GULF SHORES    DRIZZLE   49  45  86 NE7       30.15S

$$

ALZ051>060-191500-
INTERIOR SOUTHWEST AND SOUTH CENTRAL ALABAMA

CITY           SKY/WX    TMP DP  RH WIND       PRES   REMARKS
GREENVILLE     NOT AVBL
EVERGREEN      CLOUDY    49  37  63 N6        30.20R
CASTLEBERRY*   NOT AVBL
ATMORE*          N/A     48  39  71 NE8       30.18R
DIXIE*           N/A     46  39  76 CALM      30.16R
ANDALUSIA/OPP  MOSUNNY   51  35  54 CALM      30.18R
ANDALUSIA*       N/A     46  36  66 NE3       30.17R
FLORALA APT    PTSUNNY   49  38  65 CALM      30.21R
FLORALA*         N/A     50  37  62 CALM      30.16R

$$

FLZ001>006-191500-
WESTERN FLORIDA PANHANDLE

CITY           SKY/WX    TMP DP  RH WIND       PRES   REMARKS
PENSACOLA      LGT RAIN  50  41  71 NE6       30.15R
NAS PENSACOLA  LGT RAIN  50  44  80 NE8       30.15R FOG
MILTON         CLOUDY    50  38  63 VRB3      30.17R
WHTNG S FIELD  CLOUDY    54  37  52 NE6       30.18R


CITY           SKY/WX    TMP DP  RH WIND       PRES   REMARKS
WALNUT HILL*   NOT AVBL
JAY*             N/A     50  37  62 NE7       30.18R
DUKE FIELD     LGT RAIN  50  39  66 N5        30.18R
CRESTVIEW      CLOUDY    51  38  60 N5        30.19R
VALPARAISO     DRIZZLE   53  38  56 N3        30.17R
DESTIN         CLOUDY    55  39  54 NE5       30.16R

$$

MSZ076-079-191500-
INTERIOR SOUTHEAST MISSISSIPPI

CITY           SKY/WX    TMP DP  RH WIND       PRES   REMARKS
LEAKESVILLE*   NOT AVBL
AGRICOLA*      NOT AVBL

$$

MARINE OBSERVATIONS

STATION/POSITION TIME  TEMP    WIND        PRES    WAVE
                       AIR SEA DIR/SP/G            HT/PER
                 (UTC) (F)     (DEG/KT/KT) (MB)    (FT/S)
PASCAGOULA       1400   50     350/  8/ 10 1022.4R
PETIT BOIS ISLND 1400   54      40/ 13/ 16 1022.0R
GRAND BAY        1300   52      10/  7     1021.0R
KATRINA CUT      1300   53      70/ 19     1020.6R
CEDAR POINT      1300   52      50/ 15     1020.0R
E DAUPHIN ISLAND 1300   55      40/ 15/ 17 1020.4R
MIDDLE BAY LIGHT 1300   52      40/ 18     1019.6R
USCG MOBILE BAY  1400   50 60   40/  8/ 11 1019.7R
STATE DOCKS      1400   51 58              1020.0F
MEAHER PARK      1300   50      50/  5     1021.0S
WEEKS BAY        1300   54                   N/A
FORT MORGAN      1400   54      70/ 18/ 20 1019.4S
12 S ORANGE BCH  1400   59 67   40/ 16/ 19 1019.7R   2/ 4
PENSACOLA BAY    1400   52 59   30/  6/  8 1021.3F
64 S DAUPHIN ISL 1400   69 75  100/ 16/ 19 1018.5R   3/ 4
67 S FORT MORGAN 1300   69     110/ 14     1019.0R

$$

SELECTED LOCATIONS ACROSS THE REGION

CITY           SKY/WX    TMP DP  RH WIND       PRES   REMARKS
NEW ORLEANS    CLOUDY    56  52  86 NE16      30.15R
GULFPORT       HVY RAIN  50  47  89 NE13      30.16R
PASCAGOULA AP  HVY RAIN  47  45  93 NE5       30.20R FOG
PASCAGOULA*      N/A     48  46  93 CALM      30.20R
HATTIESBURG    RAIN      48  44  86 S3        30.22R FOG
LAUREL         CLOUDY    46  39  76 CALM      30.21R
MERIDIAN       CLOUDY    46  34  62 NE8       30.18F
JACKSON        CLOUDY    48  36  63 NE3       30.19R
MONTGOMERY     CLOUDY    43  36  76 CALM      30.20R
TROY           PTSUNNY   44  38  79 CALM      30.18R
KINSTON*       NOT AVBL
GENEVA*          N/A     50  37  62 NE5       30.18R
ASHFORD*         N/A     46  36  66 NE3       30.17R
DOTHAN         CLOUDY    48  36  63 NE3       30.18S
PANAMA CITY    MOSUNNY   51  40  65 N5        30.14R

$$




USA.gov is the U.S. government's official web portal to all federal, state and local government web resources and services.